User: anonymous   Login
Location: *
(58.7167°N, 26.1833°E)
Time: 21:49:30
(UTC+00:00)
Language:

Cosmos 1455 Rocket - Orbit

View from above orbital plane
View from above orbital plane
View from above satellite
View from above satellite

Ground track
Ground track

The orbit data is extracted from the following two-line orbital elements,

1 14033U 83037B   19315.38194755  .00000053  00000-0  34817-5 0  9999
2 14033  82.5087 243.4504 0019322 100.1491 260.1904 14.83793188609681
Epoch (UTC): 11 November 2019 09:10:00
Eccentricity: 0.0019322
inclination: 82.5087°
perigee height: 604 km
apogee height: 631 km
right ascension of ascending node: 243.4504°
argument of perigee: 100.1491°
revolutions per day: 14.83793188
mean anomaly at epoch: 260.1904°
orbit number at epoch: 60968

The dashed part of the orbit path shows where the satellite is in the earth's shadow,  

DLR